Find WHDW 22-07

NORAD ID: 69578 Int'l Des: 2026-137 Owner: ZXW Country: CN operational
LEOCIRCULAR

Current View

Loading 3D Globe...

About WHDW 22-07

WHDW 22-07 (NORAD 69578) is a satellite launched Jun 17, 2026 by ZXW of CN. It operates in LEO, CIRCULAR orbit with a mass of 800.00 kg.

Upcoming Passes

Passes for default location (London). Set your location on the main map for personalized predictions.

Altitude History

Loading altitude history...

Two-Line Element Set

1 69578U 26137G 26168.66120479 -.00000115 00000-0 24279-4 0 9998
2 69578 50.0009 253.5260 0010519 230.8468 129.1497 13.92606941 94
Epoch: Jun 17, 2026 • Age: 15 hours

Current Status

Altitude 916.2 km
Velocity 7.40 km/s
Sub-Earth Point 10.01°N, 59.43°E
Launch Date Jun 17, 2026
Age 1 day
Type other

Technical Details

Classification Payload
Mass 800.00 kg
Dry Mass 800.00 kg
Total Mass 800.00 kg
Length 3.00 m
Diameter 1.00 m
Span 10.00 m
Shape Box + 2 Pan
Manufacturer YINNT
Bus Type Xingwang Y
Phase Status In Orbit
Owner/State ZXW/CN

Most Searched